| time (UTC) | temp F | wind direction | speed MPH | gust MPH | rain 1hr in | rain 24hr in | rain mn in | humidity % | barometer mb |
| 20260509094504 | 61 | 207 | 4.0 | 7.0 | 0.00 | 0.12 | 0.00 | 100 | 1004.9 |
| 20260509093004 | 62 | 194 | 2.0 | 5.0 | 0.00 | 0.12 | 0.00 | 100 | 1004.9 |
| 20260509091505 | 61 | 355 | 1.0 | 3.0 | 0.00 | 0.12 | 0.00 | 100 | 1005.1 |
| 20260509090004 | 60 | 0 | 2.0 | 3.0 | 0.00 | 0.12 | 0.00 | 100 | 1005.1 |
| 20260509084504 | 59 | 0 | 2.0 | 3.0 | 0.00 | 0.12 | 0.00 | 100 | 1005.1 |
| 20260509083004 | 58 | 348 | 3.0 | 3.0 | 0.00 | 0.12 | 0.00 | 100 | 1005.0 |
| 20260509081504 | 58 | 87 | 2.0 | 7.0 | 0.00 | 0.12 | 0.00 | 100 | 1005.1 |
| 20260509080004 | 56 | 69 | 0.0 | 2.0 | 0.00 | 0.12 | 0.00 | 100 | 1005.1 |
| 20260509074504 | 56 | 69 | 0.0 | 3.0 | 0.00 | 0.12 | 0.00 | 100 | 1005.0 |
| 20260509073005 | 55 | 288 | 0.0 | 0.0 | 0.00 | 0.12 | 0.00 | 100 | 1005.2 |
| 20260509071504 | 54 | 288 | 1.0 | 3.0 | 0.00 | 0.12 | 0.00 | 100 | 1005.4 |
| 20260509070004 | 53 | 202 | 0.0 | 5.0 | 0.00 | 0.12 | 0.00 | 100 | 1005.3 |
| 20260509064504 | 53 | 217 | 2.0 | 5.0 | 0.00 | 0.12 | 0.00 | 100 | 1005.3 |
| 20260509063004 | 52 | 201 | 0.0 | 5.0 | 0.00 | 0.12 | 0.00 | 100 | 1005.3 |
| 20260509061504 | 52 | 128 | 1.0 | 3.0 | 0.00 | 0.12 | 0.00 | 100 | 1005.3 |
| 20260509060004 | 52 | 123 | 0.0 | 3.0 | 0.00 | 0.12 | 0.00 | 100 | 1005.3 |
| 20260509054504 | 52 | 123 | 0.0 | 0.0 | 0.00 | 0.12 | 0.00 | 100 | 1005.1 |
| 20260509053005 | 51 | 123 | 0.0 | 0.0 | 0.00 | 0.12 | 0.00 | 100 | 1005.1 |
| 20260509051504 | 51 | 123 | 0.0 | 0.0 | 0.00 | 0.12 | 0.00 | 100 | 1005.2 |
| 20260509050005 | 51 | 123 | 2.0 | 3.0 | 0.00 | 0.12 | 0.00 | 100 | 1005.1 |
| 20260509044505 | 51 | 122 | 0.0 | 2.0 | 0.00 | 0.12 | 0.00 | 100 | 1005.0 |
| 20260509043005 | 51 | 122 | 0.0 | 2.0 | 0.00 | 0.12 | 0.00 | 100 | 1005.0 |
| 20260509041504 | 51 | 122 | 0.0 | 3.0 | 0.00 | 0.12 | 0.00 | 100 | 1005.1 |
| 20260509040005 | 51 | 122 | 0.0 | 3.0 | 0.00 | 0.12 | 0.00 | 100 | 1005.4 |
| 20260509034504 | 51 | 122 | 0.0 | 0.0 | 0.00 | 0.12 | 0.00 | 100 | 1005.4 |
| 20260509033004 | 51 | 122 | 1.0 | 3.0 | 0.00 | 0.12 | 0.00 | 100 | 1005.8 |
| 20260509031504 | 51 | 117 | 0.0 | 0.0 | 0.00 | 0.12 | 0.00 | 100 | 1005.8 |
| 20260509030004 | 51 | 117 | 0.0 | 2.0 | 0.00 | 0.12 | 0.00 | 100 | 1006.0 |
| 20260509024504 | 51 | 117 | 0.0 | 2.0 | 0.00 | 0.12 | 0.00 | 100 | 1006.0 |
| 20260509023005 | 50 | 117 | 1.0 | 2.0 | 0.00 | 0.12 | 0.00 | 100 | 1005.9 |
| 20260509021504 | 50 | 117 | 0.0 | 2.0 | 0.00 | 0.12 | 0.00 | 100 | 1006.3 |
| 20260509020004 | 51 | 117 | 0.0 | 0.0 | 0.00 | 0.12 | 0.00 | 100 | 1006.5 |
| 20260509014504 | 50 | 117 | 0.0 | 0.0 | 0.00 | 0.12 | 0.00 | 100 | 1006.6 |
| 20260509013005 | 51 | 117 | 0.0 | 0.0 | 0.00 | 0.12 | 0.00 | 100 | 1006.7 |
| 20260509011504 | 51 | 117 | 0.0 | 0.0 | 0.00 | 0.12 | 0.00 | 100 | 1006.8 |
| 20260509010004 | 51 | 117 | 0.0 | 0.0 | 0.00 | 0.12 | 0.00 | 100 | 1007.0 |
| 20260509004504 | 51 | 117 | 0.0 | 0.0 | 0.00 | 0.12 | 0.00 | 100 | 1007.0 |
| 20260509003004 | 52 | 117 | 0.0 | 2.0 | 0.00 | 0.12 | 0.00 | 100 | 1007.1 |
| 20260509001504 | 52 | 117 | 0.0 | 0.0 | 0.00 | 0.12 | 0.00 | 100 | 1007.3 |
| 20260509000004 | 52 | 117 | 0.0 | 2.0 | 0.00 | 0.12 | 0.00 | 100 | 1007.5 |
| 20260508234504 | 53 | 117 | 0.0 | 2.0 | 0.00 | 0.12 | 0.00 | 100 | 1007.7 |
| 20260508233004 | 53 | 117 | 0.0 | 2.0 | 0.00 | 0.12 | 0.00 | 100 | 1007.7 |
| 20260508231504 | 53 | 117 | 0.0 | 6.0 | 0.00 | 0.12 | 0.00 | 100 | 1007.6 |
| 20260508230004 | 53 | 115 | 2.0 | 3.0 | 0.00 | 0.12 | 0.00 | 100 | 1007.8 |
| 20260508224504 | 53 | 115 | 0.0 | 3.0 | 0.00 | 0.12 | 0.00 | 100 | 1007.8 |
| 20260508223005 | 53 | 115 | 1.0 | 3.0 | 0.00 | 0.12 | 0.00 | 100 | 1008.0 |
| 20260508221504 | 53 | 115 | 2.0 | 3.0 | 0.00 | 0.12 | 0.00 | 100 | 1008.0 |
| 20260508220004 | 53 | 115 | 1.0 | 3.0 | 0.00 | 0.12 | 0.00 | 100 | 1008.3 |
| 20260508214504 | 53 | 115 | 2.0 | 3.0 | 0.00 | 0.12 | 0.12 | 100 | 1008.4 |
| 20260508213020 | 52 | 115 | 0.0 | 0.0 | 0.00 | 0.12 | 0.12 | 100 | 1008.5 |
| 20260508211504 | 53 | 115 | 0.0 | 2.0 | 0.00 | 0.12 | 0.12 | 100 | 1008.6 |
| 20260508210004 | 53 | 115 | 1.0 | 6.0 | 0.00 | 0.12 | 0.12 | 100 | 1008.6 |
| 20260508204504 | 54 | 89 | 2.0 | 7.0 | 0.00 | 0.12 | 0.12 | 100 | 1008.6 |
| 20260508203004 | 54 | 75 | 2.0 | 5.0 | 0.00 | 0.12 | 0.12 | 100 | 1008.6 |
| 20260508201504 | 53 | 108 | 2.0 | 3.0 | 0.00 | 0.12 | 0.12 | 100 | 1008.5 |
| 20260508200004 | 53 | 58 | 0.0 | 3.0 | 0.00 | 0.12 | 0.12 | 100 | 1008.3 |
| 20260508194505 | 54 | 61 | 0.0 | 2.0 | 0.00 | 0.12 | 0.12 | 100 | 1008.0 |
| 20260508193004 | 54 | 61 | 1.0 | 3.0 | 0.00 | 0.12 | 0.12 | 100 | 1007.9 |
| 20260508191504 | 54 | 61 | 0.0 | 0.0 | 0.00 | 0.12 | 0.12 | 100 | 1007.8 |
| 20260508190004 | 55 | 61 | 0.0 | 3.0 | 0.00 | 0.12 | 0.12 | 100 | 1007.6 |
| 20260508184504 | 55 | 62 | 1.0 | 3.0 | 0.00 | 0.12 | 0.12 | 100 | 1007.5 |
| 20260508183004 | 55 | 0 | 0.0 | 3.0 | 0.00 | 0.12 | 0.12 | 99 | 1007.4 |
| 20260508181504 | 56 | 13 | 1.0 | 7.0 | 0.00 | 0.12 | 0.12 | 98 | 1007.2 |
| 20260508180004 | 56 | 77 | 1.0 | 6.0 | 0.00 | 0.12 | 0.12 | 97 | 1007.1 |
| 20260508174504 | 56 | 60 | 2.0 | 5.0 | 0.00 | 0.12 | 0.12 | 97 | 1007.0 |
| 20260508173004 | 56 | 72 | 1.0 | 3.0 | 0.00 | 0.13 | 0.12 | 96 | 1007.0 |
| 20260508171504 | 56 | 189 | 0.0 | 0.0 | 0.00 | 0.13 | 0.12 | 98 | 1006.9 |
| 20260508170005 | 56 | 189 | 0.0 | 2.0 | 0.01 | 0.14 | 0.12 | 99 | 1007.0 |
| 20260508164504 | 56 | 189 | 0.0 | 3.0 | 0.02 | 0.14 | 0.12 | 100 | 1006.8 |
| 20260508163005 | 56 | 164 | 0.0 | 5.0 | 0.04 | 0.14 | 0.12 | 100 | 1006.8 |
| 20260508161504 | 57 | 181 | 1.0 | 3.0 | 0.04 | 0.14 | 0.12 | 100 | 1006.6 |
| 20260508160004 | 57 | 119 | 0.0 | 3.0 | 0.04 | 0.13 | 0.11 | 100 | 1006.5 |
| 20260508154504 | 57 | 117 | 0.0 | 5.0 | 0.03 | 0.12 | 0.10 | 100 | 1006.6 |
| 20260508153005 | 57 | 230 | 3.0 | 6.0 | 0.01 | 0.10 | 0.08 | 100 | 1006.8 |
| 20260508151504 | 58 | 205 | 2.0 | 3.0 | 0.01 | 0.10 | 0.08 | 100 | 1006.4 |
| 20260508150004 | 58 | 205 | 2.0 | 5.0 | 0.00 | 0.09 | 0.07 | 100 | 1006.5 |
| 20260508144504 | 58 | 199 | 2.0 | 3.0 | 0.00 | 0.10 | 0.07 | 100 | 1006.2 |
| 20260508143004 | 59 | 210 | 2.0 | 8.0 | 0.00 | 0.10 | 0.07 | 100 | 1006.3 |
| 20260508141504 | 58 | 148 | 0.0 | 6.0 | 0.00 | 0.10 | 0.07 | 100 | 1006.5 |
| 20260508140004 | 58 | 153 | 3.0 | 6.0 | 0.00 | 0.10 | 0.07 | 100 | 1006.6 |
| 20260508134504 | 58 | 173 | 1.0 | 5.0 | 0.00 | 0.10 | 0.07 | 100 | 1006.8 |
| 20260508133004 | 57 | 173 | 0.0 | 3.0 | 0.00 | 0.10 | 0.07 | 100 | 1007.0 |
| 20260508131505 | 57 | 271 | 0.0 | 2.0 | 0.00 | 0.10 | 0.07 | 100 | 1007.2 |
| 20260508130004 | 57 | 270 | 0.0 | 3.0 | 0.00 | 0.10 | 0.07 | 100 | 1007.3 |
| 20260508124504 | 57 | 295 | 0.0 | 7.0 | 0.00 | 0.10 | 0.07 | 100 | 1007.3 |
| 20260508123005 | 57 | 347 | 3.0 | 5.0 | 0.00 | 0.10 | 0.07 | 100 | 1007.7 |
| 20260508121504 | 57 | 286 | 1.0 | 3.0 | 0.00 | 0.10 | 0.07 | 100 | 1007.7 |
| 20260508120004 | 57 | 262 | 1.0 | 3.0 | 0.00 | 0.10 | 0.07 | 100 | 1007.5 |
| 20260508114504 | 56 | 211 | 2.0 | 3.0 | 0.00 | 0.10 | 0.07 | 100 | 1007.3 |
| 20260508113005 | 56 | 200 | 0.0 | 2.0 | 0.01 | 0.10 | 0.07 | 100 | 1007.1 |
| 20260508111504 | 56 | 200 | 1.0 | 3.0 | 0.05 | 0.10 | 0.07 | 100 | 1007.3 |
| 20260508110004 | 56 | 252 | 0.0 | 2.0 | 0.07 | 0.10 | 0.07 | 100 | 1007.5 |
| 20260508104504 | 56 | 252 | 1.0 | 3.0 | 0.07 | 0.10 | 0.07 | 100 | 1007.7 |
| 20260508103005 | 55 | 234 | 2.0 | 7.0 | 0.06 | 0.09 | 0.06 | 100 | 1007.7 |
| 20260508101504 | 56 | 209 | 2.0 | 5.0 | 0.02 | 0.05 | 0.02 | 100 | 1007.8 |
| 20260508100004 | 56 | 288 | 4.0 | 12.0 | 0.00 | 0.03 | 0.00 | 100 | 1007.5 |